TimeEDT,TemperatureF,Dew PointF,Humidity,Sea Level PressureIn,VisibilityMPH,Wind Direction,Wind SpeedMPH,Gust SpeedMPH,PrecipitationIn,Events,Conditions,WindDirDegrees,DateUTC
12:00 AM,53.6,48.2,82,30.21,25.0,NNE,2.3,-,N/A,,Clear,30,2013-10-12 04:00:00
1:00 AM,51.8,48.2,88,30.22,15.0,Calm,Calm,-,N/A,,Clear,0,2013-10-12 05:00:00
2:00 AM,51.8,48.2,88,30.23,25.0,Calm,Calm,-,N/A,,Clear,0,2013-10-12 06:00:00
3:00 AM,50.0,46.4,87,30.22,25.0,NE,2.3,-,N/A,,Clear,40,2013-10-12 07:00:00
4:00 AM,50.0,46.4,87,30.24,25.0,NE,4.6,-,N/A,,Clear,50,2013-10-12 08:00:00
5:00 AM,48.2,44.6,87,30.25,25.0,NE,5.8,-,N/A,,Clear,50,2013-10-12 09:00:00
6:00 AM,48.2,44.6,87,30.26,25.0,NE,4.6,-,N/A,,Clear,50,2013-10-12 10:00:00
7:00 AM,48.2,44.6,87,30.28,25.0,NE,4.6,-,N/A,,Partly Cloudy,50,2013-10-12 11:00:00
8:00 AM,50.0,46.4,87,30.30,25.0,NE,4.6,-,N/A,,Partly Cloudy,50,2013-10-12 12:00:00
9:00 AM,53.6,46.4,77,30.30,25.0,NE,8.1,-,N/A,,Partly Cloudy,40,2013-10-12 13:00:00
10:00 AM,55.4,48.2,77,30.31,25.0,ENE,8.1,-,N/A,,Clear,60,2013-10-12 14:00:00
11:00 AM,59.0,50.0,72,30.32,25.0,ENE,8.1,-,N/A,,Clear,70,2013-10-12 15:00:00
12:00 PM,60.8,50.0,68,30.32,25.0,East,8.1,-,N/A,,Clear,80,2013-10-12 16:00:00
1:00 PM,64.4,50.0,59,30.30,25.0,East,6.9,-,N/A,,Clear,90,2013-10-12 17:00:00
2:00 PM,68.0,51.8,56,30.28,25.0,ENE,5.8,-,N/A,,Clear,70,2013-10-12 18:00:00
3:00 PM,68.0,51.8,56,30.28,25.0,East,6.9,-,N/A,,Partly Cloudy,100,2013-10-12 19:00:00
4:00 PM,69.8,51.8,53,30.27,25.0,East,5.8,-,N/A,,Partly Cloudy,90,2013-10-12 20:00:00
5:00 PM,68.0,51.8,56,30.27,25.0,East,4.6,-,N/A,,Partly Cloudy,80,2013-10-12 21:00:00
6:00 PM,66.2,51.8,60,30.27,25.0,NE,4.6,-,N/A,,Partly Cloudy,50,2013-10-12 22:00:00
7:00 PM,62.6,50.0,63,30.27,25.0,ENE,4.6,-,N/A,,Clear,60,2013-10-12 23:00:00
8:00 PM,59.0,50.0,72,30.28,25.0,ENE,3.5,-,N/A,,Clear,60,2013-10-13 00:00:00
9:00 PM,57.2,50.0,77,30.29,25.0,NE,4.6,-,N/A,,Clear,40,2013-10-13 01:00:00
10:00 PM,55.4,50.0,82,30.31,25.0,NE,5.8,-,N/A,,Clear,50,2013-10-13 02:00:00
11:00 PM,53.6,48.2,82,30.32,25.0,ENE,6.9,-,N/A,,Clear,60,2013-10-13 03:00:00